sat.trackr.live / text

‹ back to catalog

TSAT-1A

NORAD 59442 · 2024-066A

PAYLOAD ACTIVE UNKNOWN

§ Identity

Operator
Country
IND
Launch date
2024-04-07
Launch site
AFETR
Launch vehicle
Mass (kg)
RCS (m²)

External: N2YO · Heavens-Above · Gunter

§ Orbital elements

Epoch: 2026-09-22T11:12:05.516064Z

Period
93.80 min
Inclination
45.6156°
Eccentricity
0.0011755
Mean motion
15.35116988 rev/d
Perigee alt
452.5 km
Apogee alt
468.6 km
Semi-major
6,838.7 km
B*
2.5176e-4
RAAN
309.3170°
Arg perigee
301.1743°
Mean anomaly
58.8000°
Rev number
13,672

§ Raw data

TSAT-1A1 59442U 24066A   26265.46673051  .00008441  00000+0  25176-3 0  99952 59442  45.6156 309.3170 0011755 301.1743  58.8000 15.35116988136721

JSON: /api/v1/satellites/59442 · /tle

For live sub-satellite position, see the globe view (requires WebGL).

§ Visibility from observer

Set your observer location to see the next 7 days of passes ≥ 10°. The values pass through the URL so the page stays shareable.

No JS? Fill the form by hand. The geolocation button needs JavaScript.